Home   Weather   Christiansted   Past weeks

Flag for US Virgin Islands Past Weather in Christiansted, US Virgin Islands — Yesterday and Last 2 Weeks

Now
81 °F

Scattered clouds.


Feels Like: 87 °F
Forecast: N/A
Wind: 10 mph from East

Location: Christiansted / Henry E. Rohlsen Airport - Saint Croix

Current Time: Oct 1, 2016 at 6:19:58 PM

Latest Report: Oct 1, 2016 at 5:53 PM


Visibility: 10 mi

Pressure: 29.84 "Hg

Humidity: 82%

Dew Point: 75 °F

Location of ChristianstedLocation

Past Weather in Christiansted — Graph

°F

Christiansted Temperature Yesterday

Maximum temperature yesterday: 88 °F (at 11:53 AM)
Minimum temperature yesterday: 77 °F (at 5:53 AM)
Average temperature yesterday: 81 °F

High & Low Weather Summary for the Past Weeks

 TemperatureHumidityPressure
High89 °F (Sep 17, 1:53 PM)100% (Sep 17, 1:53 AM)30.04 "Hg (Sep 17, 1:53 AM)
Low73 °F (Sep 21, 3:53 AM)63% (Sep 17, 1:53 PM)29.82 "Hg (Oct 1, 2:53 AM)
Average81 °F86%29.94 "Hg
* Reported Sep 16 4:53 PM — Oct 1 4:53 PM, Christiansted, Weather by CustomWeather, © 2016

Note: Actual official high and low records may vary slightly from our data, if they occured in-between our weather recording intervals... More about our weather records

Advertising

Christiansted Weather History for the Previous 24 Hours

Scroll right to see more
 ConditionsComfort  
Time TempWeatherWind HumidityBarometerVisibility
4:53 PM
Sat, Oct 1
84 °FBroken clouds.13 mph74%29.83 "Hg10 mi
3:53 PM83 °FScattered clouds.10 mph79%29.83 "Hg10 mi
2:53 PM86 °FBroken clouds.14 mph75%29.84 "Hg10 mi
1:53 PM86 °FScattered clouds.18 mph72%29.85 "Hg10 mi
12:53 PM84 °FScattered clouds.13 mph85%29.86 "Hg10 mi
11:53 AM87 °FBroken clouds.16 mph69%29.89 "Hg10 mi
10:53 AM86 °FScattered clouds.17 mph72%29.91 "Hg10 mi
9:53 AM84 °FScattered clouds.18 mph77%29.91 "Hg10 mi
8:53 AM83 °FScattered clouds.16 mph74%29.90 "Hg10 mi
7:53 AM82 °FScattered clouds.14 mph82%29.89 "Hg10 mi
6:53 AM79 °FScattered clouds.8 mph90%29.87 "Hg10 mi
5:53 AM77 °FPassing clouds.8 mph94%29.85 "Hg10 mi
4:53 AM76 °FPassing clouds.9 mph97%29.82 "Hg10 mi
3:53 AM76 °FRain. Fog.16 mph97%29.82 "Hg6 mi
2:53 AM78 °FPartly cloudy.14 mph90%29.82 "Hg10 mi
1:53 AM78 °FPassing clouds.8 mph90%29.83 "Hg10 mi
12:53 AM78 °FPassing clouds.9 mph93%29.85 "Hg10 mi
11:53 PM
Fri, Sep 30
78 °FPassing clouds.9 mph93%29.87 "Hg10 mi
10:53 PM78 °FPassing clouds.13 mph90%29.88 "Hg10 mi
9:53 PM78 °FClear.12 mph93%29.89 "Hg10 mi
8:53 PM78 °FPassing clouds.9 mph90%29.88 "Hg10 mi
7:53 PM79 °FLight rain. Passing clouds.7 mph90%29.86 "Hg10 mi
6:53 PM79 °FPassing clouds.7 mph90%29.85 "Hg10 mi
Weather by CustomWeather, © 2016

See weather overviewHow to use our weather pages